Weather History for Wahoo, NE

Change the Weather History Date:

Friday, September 23, 2011

  Actual Average Record
Temperature  
Mean Temperature 50 °F -  
Max Temperature 68 °F 72 °F 87 °F (1976)
Min Temperature 33 °F 45 °F 27 °F (1983)
Degree Days  
Heating Degree Days 14    
Moisture  
Dew Point 37 °F    
Average Humidity 66    
Maximum Humidity 100    
Minimum Humidity 26    
Precipitation  
Precipitation 0.00 in - - ()
Sea Level Pressure  
Sea Level Pressure 30.11 in    
Wind  
Wind Speed 3 mph (North)    
Max Wind Speed 7 mph    
Max Gust Speed -    
Visibility 10 miles    
Events      
Averages and records for this station are not official NWS values.
T = Trace of Precipitation, MM = Missing Value Source: NWS Daily Summary

Daily Weather History Graph

Daily Weather History Graph

Search for Another Location

Airport:

Trip Planner

Search our weather history database for the weather conditions in past years. The results will help you decide how hot, cold, wet, or windy it might be!

Date:

Astronomy

Sep. 23, 2011 Rise Set
Actual Time 7:14 AM CDT 7:22 PM CDT
Civil Twilight 6:47 AM CDT 7:49 PM CDT
Nautical Twilight 6:14 AM CDT 8:21 PM CDT
Astronomical Twilight 5:41 AM CDT 8:54 PM CDT
Moon 2:40 AM CDT (9/23) 4:55 PM CDT (9/23)
Length of Visible Light 13h 02m
Length of Day
12h 07m
Waning Crescent, 19% of the Moon is Illuminated
Sep 23
Waning Crescent
Sep 27
New
Oct 3
First Quarter
Oct 11
Full
Oct 19
Last Quarter

Hourly Weather History & Observations

Time (CDT) Temp. Windchill Dew Point Humidity Pressure Visibility Wind Dir Wind Speed Gust Speed Precip Events Conditions
12:15 AM 42.8 °F 40.1 °F 37.4 °F 81% 30.15 in 10.0 mi North 4.6 mph - N/A   Clear
12:35 AM 41.0 °F 37.1 °F 37.4 °F 87% 30.15 in 10.0 mi North 5.8 mph - N/A   Clear
12:55 AM 41.0 °F 37.1 °F 37.4 °F 87% 30.15 in 10.0 mi North 5.8 mph - N/A   Clear
1:15 AM 39.2 °F - 37.4 °F 93% 30.15 in 10.0 mi Calm Calm - N/A   Clear
1:35 AM 41.0 °F - 37.4 °F 87% 30.15 in 10.0 mi Calm Calm - N/A   Clear
1:55 AM 39.2 °F 37.0 °F 37.4 °F 93% 30.15 in 10.0 mi North 3.5 mph - N/A   Clear
2:15 AM 37.4 °F 32.8 °F 35.6 °F 93% 30.15 in 10.0 mi North 5.8 mph - N/A   Clear
2:35 AM 37.4 °F 32.1 °F 35.6 °F 93% 30.15 in 10.0 mi North 6.9 mph - N/A   Clear
3:15 AM 37.4 °F 32.8 °F 35.6 °F 93% 30.14 in 10.0 mi NNW 5.8 mph - N/A   Clear
3:35 AM 35.6 °F 31.7 °F 33.8 °F 93% 30.14 in 10.0 mi NNW 4.6 mph - N/A   Clear
3:55 AM 35.6 °F 32.8 °F 35.6 °F 100% 30.13 in 10.0 mi NNW 3.5 mph - N/A   Clear
4:15 AM 35.6 °F - 33.8 °F 93% 30.13 in 10.0 mi Calm Calm - N/A   Clear
4:35 AM 35.6 °F 31.7 °F 33.8 °F 93% 30.14 in 10.0 mi NNW 4.6 mph - N/A   Clear
4:55 AM 35.6 °F 31.7 °F 33.8 °F 93% 30.13 in 10.0 mi NNW 4.6 mph - N/A   Clear
5:35 AM 35.6 °F 29.9 °F 33.8 °F 93% 30.13 in 10.0 mi North 6.9 mph - N/A   Clear
5:55 AM 35.6 °F 31.7 °F 33.8 °F 93% 30.14 in 10.0 mi NNW 4.6 mph - N/A   Clear
6:15 AM 35.6 °F 30.7 °F 33.8 °F 93% 30.14 in 7.0 mi North 5.8 mph - N/A   Clear
6:35 AM 35.6 °F 31.7 °F 33.8 °F 93% 30.15 in 7.0 mi NNW 4.6 mph - N/A   Clear
6:55 AM 35.6 °F 30.7 °F 33.8 °F 93% 30.16 in 7.0 mi NNW 5.8 mph - N/A   Clear
7:15 AM 33.8 °F 29.6 °F 33.8 °F 100% 30.16 in 7.0 mi NNW 4.6 mph - N/A   Clear
7:35 AM 35.6 °F 31.7 °F 33.8 °F 93% 30.16 in 7.0 mi NNW 4.6 mph - N/A   Clear
8:15 AM 37.4 °F 33.8 °F 35.6 °F 93% 30.16 in 10.0 mi NNW 4.6 mph - N/A   Clear
8:35 AM 41.0 °F 39.0 °F 37.4 °F 87% 30.16 in 10.0 mi NNW 3.5 mph - N/A   Clear
8:55 AM 42.8 °F 41.1 °F 41.0 °F 93% 30.16 in 10.0 mi North 3.5 mph - N/A   Clear
9:15 AM 44.6 °F 43.1 °F 41.0 °F 87% 30.16 in 10.0 mi North 3.5 mph - N/A   Clear
9:35 AM 48.2 °F - 42.8 °F 82% 30.17 in 10.0 mi Calm Calm - N/A   Clear
9:55 AM 50.0 °F - 42.8 °F 76% 30.18 in 10.0 mi Calm Calm - N/A   Clear
10:15 AM 53.6 °F - 41.0 °F 62% 30.19 in 10.0 mi Calm Calm - N/A   Clear
10:35 AM 55.4 °F - 42.8 °F 63% 30.18 in 10.0 mi Calm Calm - N/A   Clear
10:55 AM 57.2 °F - 41.0 °F 55% 30.18 in 10.0 mi Calm Calm - N/A   Clear
11:15 AM 59.0 °F - 41.0 °F 51% 30.17 in 10.0 mi SE 3.5 mph - N/A   Clear
11:35 AM 59.0 °F - 39.2 °F 48% 30.16 in 10.0 mi Calm Calm - N/A   Clear
11:55 AM 60.8 °F - 37.4 °F 42% 30.15 in 10.0 mi Calm Calm - N/A   Clear
12:15 PM 60.8 °F - 37.4 °F 42% 30.14 in 10.0 mi SE 6.9 mph - N/A   Clear
12:35 PM 62.6 °F - 35.6 °F 37% 30.13 in 10.0 mi East 4.6 mph - N/A   Clear
12:55 PM 62.6 °F - 35.6 °F 37% 30.12 in 10.0 mi Calm Calm - N/A   Clear
1:35 PM 62.6 °F - 33.8 °F 34% 30.11 in 10.0 mi Calm Calm - N/A   Clear
1:55 PM 64.4 °F - 33.8 °F 32% 30.10 in 10.0 mi Calm Calm - N/A   Clear
2:15 PM 64.4 °F - 35.6 °F 34% 30.09 in 10.0 mi West 4.6 mph - N/A   Clear
2:35 PM 64.4 °F - 33.8 °F 32% 30.09 in 10.0 mi Calm Calm - N/A   Clear
2:55 PM 64.4 °F - 32.0 °F 30% 30.08 in 10.0 mi Calm Calm - N/A   Clear
3:15 PM 66.2 °F - 33.8 °F 30% 30.07 in 10.0 mi Calm Calm - N/A   Clear
3:35 PM 64.4 °F - 33.8 °F 32% 30.06 in 10.0 mi Calm Calm - N/A   Clear
3:55 PM 68.0 °F - 33.8 °F 28% 30.07 in 10.0 mi Calm Calm - N/A   Clear
4:15 PM 66.2 °F - 32.0 °F 28% 30.05 in 10.0 mi Calm Calm - N/A   Clear
4:35 PM 68.0 °F - 32.0 °F 26% 30.05 in 10.0 mi Calm Calm - N/A   Clear
4:55 PM 68.0 °F - 33.8 °F 28% 30.05 in 10.0 mi Calm Calm - N/A   Clear
5:15 PM 68.0 °F - 32.0 °F 26% 30.04 in 10.0 mi Calm Calm - N/A   Clear
5:35 PM 68.0 °F - 32.0 °F 26% 30.04 in 10.0 mi Calm Calm - N/A   Clear
5:55 PM 66.2 °F - 33.8 °F 30% 30.02 in 10.0 mi Calm Calm - N/A   Clear
6:15 PM 64.4 °F - 35.6 °F 34% 30.02 in 10.0 mi Calm Calm - N/A   Clear
6:35 PM 62.6 °F - 41.0 °F 45% 30.02 in 10.0 mi Calm Calm - N/A   Clear
7:15 PM 59.0 °F - 41.0 °F 51% 30.02 in 10.0 mi ESE 4.6 mph - N/A   Clear
7:35 PM 55.4 °F - 42.8 °F 63% 30.02 in 10.0 mi ESE 5.8 mph - N/A   Clear
7:55 PM 51.8 °F - 42.8 °F 71% 30.01 in 10.0 mi SE 5.8 mph - N/A   Clear
8:15 PM 51.8 °F - 41.0 °F 67% 30.01 in 10.0 mi SSE 3.5 mph - N/A   Clear
8:35 PM 51.8 °F - 41.0 °F 67% 30.02 in 10.0 mi SE 3.5 mph - N/A   Clear
8:55 PM 50.0 °F - 41.0 °F 71% 30.02 in 10.0 mi South 3.5 mph - N/A   Clear
9:15 PM 50.0 °F - 41.0 °F 71% 30.01 in 10.0 mi SSE 5.8 mph - N/A   Clear
9:35 PM 46.4 °F 43.5 °F 39.2 °F 76% 30.01 in 10.0 mi SSE 5.8 mph - N/A   Clear
9:55 PM 46.4 °F 45.2 °F 39.2 °F 76% 30.01 in 10.0 mi SSE 3.5 mph - N/A   Clear
10:15 PM 46.4 °F 45.2 °F 39.2 °F 76% 30.01 in 10.0 mi SE 3.5 mph - N/A   Clear
10:35 PM 46.4 °F - 39.2 °F 76% 30.01 in 10.0 mi Calm Calm - N/A   Clear
10:55 PM 46.4 °F - 39.2 °F 76% 30.01 in 10.0 mi Calm Calm - N/A   Clear
11:15 PM 48.2 °F - 39.2 °F 71% 30.01 in 10.0 mi Calm Calm - N/A   Clear
11:35 PM 46.4 °F - 41.0 °F 81% 30.01 in 10.0 mi Calm Calm - N/A   Clear
11:55 PM 44.6 °F - 41.0 °F 87% 30.01 in 10.0 mi Calm Calm - N/A   Clear